AirNav   Phillips 66 Aviation Fuel
 
 918 users online  

P19 Stellar Airpark
Chandler, Arizona, USA

GOING TO CHANDLER?


FAA INFORMATION EFFECTIVE 29 MARCH 2018

Location

FAA Identifier: P19
Lat/Long: 33-17-55.9545N / 111-54-55.5725W
33-17.932575N / 111-54.926208W
33.2988762 / -111.9154368
(estimated)
Elevation: 1176.5 ft. / 359 m (estimated)
Variation: 13E (1980)
From city: 3 miles W of CHANDLER, AZ
Time zone: UTC -7 (year round; does not observe DST)
Zip code: 85226

Airport Operations

Airport use: Open to the public
Control tower: no
ARTCC: ALBUQUERQUE CENTER
FSS: PRESCOTT FLIGHT SERVICE STATION
NOTAMs facility: PRC (NOTAM-D service available)
Attendance: UNATNDD
Pattern altitude: 1999.5 ft. MSL
Wind indicator: yes
Segmented circle: no
Lights: DUSK-DAWN. ACTVT MIRL RY 17/35 - CTAF.
Beacon: white-green (lighted land airport)
Operates sunset to sunrise.

Airport Communications

CTAF/UNICOM: 122.975
PHOENIX APPROACH: 123.7
PHOENIX DEPARTURE: 123.7
WX AWOS-3PT at CHD (6 nm E): 128.325 (480-814-9952)
WX ASOS at PHX (9 nm NW): PHONE 602-231-8557
WX AWOS-3 at IWA (13 nm E): 133.5 (480-988-9428)
WX ASOS at FFZ (14 nm NE): 118.25 (480-641-4111)
WX AWOS-3 at A39 (19 nm S): 126.900 (520-568-7704)
WX ASOS at SDL (19 nm N): PHONE 480-483-3049

Nearby radio navigation aids

VOR radial/distance  VOR name  Freq  Var
PXRr149/8.5PHOENIX VORTAC115.6012E
IWAr256/13.2WILLIE VORTAC113.3013E
TFDr347/24.8STANFIELD VORTAC114.8012E

 
NDB name  Hdg/Dist  Freq  Var  ID
CHANDLER278/5.740712ECHD -.-. .... -..

Airport Services

Fuel available: 100LL
FOR FUEL AND TIEDOWN INFORMATION CTC FBO AT (480) 961-9050.
Parking: tiedowns
Airframe service: MINOR
Powerplant service: MINOR
Bulk oxygen: NONE

Runway Information

Runway 17/35

Dimensions: 3914 x 60 ft. / 1193 x 18 m
Surface: asphalt, in good condition
Runway edge lights: medium intensity
RUNWAY 17  RUNWAY 35
Latitude: 33-18.255233N33-17.609917N
Longitude: 111-54.925867W111-54.926550W
Elevation: 1176.5 ft.1172.8 ft.
Traffic pattern: leftleft
Runway heading: 167 magnetic, 180 true347 magnetic, 000 true
Displaced threshold: 365 ft.350 ft.
Markings: basic, in good conditionbasic, in good condition
Visual slope indicator: 2-light PAPI on left (3.25 degrees glide path)2-light PAPI on right (3.25 degrees glide path)
Runway end identifier lights: yesyes
Touchdown point: yes, no lightsyes, no lights
Obstructions: 32 ft. tree, 676 ft. from runway, 20 ft. left of centerline, 21:1 slope to clearnone

Airport Ownership and Management from official FAA records

Ownership: Privately-owned
Owner: STELLAR RUNWAY UTILIZERS ASSN, INC.
4304 WEST MERCURY WAY
CHANDLER, AZ 85226
Phone 480-295-2683
Manager: BOD, STELLAR RUNWAY UTILIZERS ASSN
4304 WEST MERCURY WAY
CHANDLER, AZ 85226-3715
Phone 480-295-2683

Airport Operational Statistics

Aircraft based on the field: 176
Single engine airplanes: 150
Multi engine airplanes: 12
Jet airplanes: 5
Helicopters: 7
Gliders airplanes: 1
Ultralights: 1
    
Aircraft operations: avg 110/day *
80% local general aviation
20% transient general aviation
* for 12-month period ending 31 October 2013

Additional Remarks

BE ALERT TO NUMEROUS NO RADIO AIRCRAFT INVOF AIRPORT.
BIRDS ON OR INVOF ARPT.
PPR REQUIRED FOR AIRCRAFT CERTIFICATED FOR 15,000 GROSS TAKEOFF WEIGHT NOT BASED AT AIRORT.
TRAINING AIRCRAFT TGL PROHIBITED. HELICOPTER TRAINING PROHIBITED.
AVOID OVERFLIGHT OF NOISE SENSITIVE AREAS WEST OF RY 17/35 AND NORTH OF AIRPORT.
COMMERCIAL AND STUDENT TRAINING OPERATIONS BY PERMIT ONLY.
CALM WIND RY 17.
PRACTICE INSTRUMENT APPROACHES IN VFR CONDITIONS NOT AUTHORIZED.
FLOOD IRRIGATION BETWEEN RY AND TWY WITH STANDING WATER UP TO 1 FT DEPTH ON IRREGULAR SCHEDULE.
ALL RUNUPS ON EAST SIDE RUNUP AREAS.

Instrument Procedures

NOTE: All procedures below are presented as PDF files. If you need a reader for these files, you should download the free Adobe Reader.

NOT FOR NAVIGATION. Please procure official charts for flight.
FAA instrument procedures published for use from 29 March 2018 at 0901Z to 26 April 2018 at 0900Z.

 
STARs - Standard Terminal Arrivals
ARLIN FOUR **CHANGED**   download (324KB)
BLYTHE FIVE **CHANGED**   download (275KB)
SUNSS EIGHT **CHANGED**   download (270KB)
 
IAPs - Instrument Approach Procedures
VOR OR GPS-A   download (172KB)
NOTE: Special Take-Off Minimums/Departure Procedures apply   download (113KB)

Other nearby airports with instrument procedures:

KCHD - Chandler Municipal Airport (6 nm E)
KPHX - Phoenix Sky Harbor International Airport (9 nm NW)
KIWA - Phoenix-Mesa Gateway Airport (13 nm E)
KFFZ - Falcon Field Airport (14 nm NE)
KSDL - Scottsdale Airport (19 nm N)
 
Loc | Ops | Rwys | IFR | FBO | Links
Com | Nav | Svcs | Stats | Notes

AirNav Hotels Sweepstakes
 
Area around P19 (Stellar Airpark)
 
Road maps at: MapQuest Bing Google
 
Aerial photo
WARNING: Photo may not be current or correct
Aerial photo of P19 (Stellar Airpark)
Taken in April 2006

Do you have a better or more recent aerial photo of Stellar Airpark that you would like to share? If so, please send us your photo.

 
Sectional chart

 
Airport distance calculator
Flying to Stellar Airpark? Find the distance to fly.

From to P19

Sunrise and sunset
Times for 22-Apr-2018
 Local
(UTC-7)
 Zulu
(UTC)
Morning civil twilight05:2412:24
Sunrise05:5012:50
Sunset19:0202:02
Evening civil twilight19:2802:28

Current date and time
Zulu (UTC)  22-Apr-2018 23:05:04
Local (UTC-7)  22-Apr-2018 16:05:04
 
METAR
KCHD 
5nm E 
222047Z 29005KT 10SM SCT200 33/M03 A2985
KPHX 
11nm NW 
222251Z 27007KT 10SM FEW120 SCT180 SCT250 33/M03 A2978 RMK AO2 SLP068 VIRGA T03331033
KIWA 
13nm E 
222247Z 23009KT 45SM SCT180 SCT250 33/M03 A2982
KFFZ 
14nm NE 
222255Z 26006KT 30SM FEW150 33/M03 A2981
KSDL 
19nm N 
222253Z 18003KT 10SM CLR 33/M02 A2983 RMK AO2 SLP077 T03331017
TAF
KPHX 
11nm NW 
222102Z 2221/2324 25007KT P6SM FEW150 SCT200 FM230800 10006KT P6SM SKC FM231900 25005KT P6SM SKC
KIWA 
13nm E 
221720Z 2218/2318 26007KT P6SM SCT180 SCT250 FM230600 11007KT P6SM FEW170 SCT250
KSDL 
19nm N 
221720Z 2218/2318 24005KT P6SM SCT180 SCT250 FM230300 VRB03KT P6SM FEW170 SCT250
NOTAMs
Click for the latest NOTAMs
NOTAMs are issued by the DoD/FAA and will open in a separate window not controlled by AirNav.

 

 
 

FBO, Fuel Providers, and Aircraft Ground Support

  
 Business Name 
 
 Contact 
 
 Services / Description 
 
Fuel Prices
 
Comments
  
Stellar Air 480-961-9050 Aviation fuel, Aircraft parking (ramp or tiedown), Restrooms, Other business

More info about Stellar Air
EPIC
100LL
SS $4.89 
 Updated 13-Apr-2018
 
   write
SS=Self service
Update Fuel Prices
 

Would you like to see your business listed on this page?

 If your business provides an interesting product or service to pilots, flight crews, aircraft, or users of the Stellar Airpark, you should consider listing it here.  To start the listing process, click on the button below
 
Add a business
 

Other Pages about Stellar Airpark

www.stellarairpark.org
 
Update a link
 
Copyright © AirNav, LLC. All rights reserved. Privacy Policy  Contact